Pula, Croatia

10:55 AM CET on February 24, 2017 (GMT +0100)
Pula

Weather History for LDPL - September, 2013

Change the Weather History Date:

Monday, September 9, 2013

  Actual Average Record
Temperature  
Mean Temperature 74 °F -  
Max Temperature 81 °F - - ()
Min Temperature 67 °F - - ()
Cooling Degree Days 9    
Growing Degree Days 24 (Base 50)    
Moisture  
Dew Point 65 °F    
Average Humidity 76    
Maximum Humidity 94    
Minimum Humidity 4    
Precipitation  
Precipitation 0.00 in - - ()
Sea Level Pressure  
Sea Level Pressure 30.00 in    
Wind  
Wind Speed 5 mph ()    
Max Wind Speed 13 mph    
Max Gust Speed -    
Visibility 7.4 miles    
Events Rain    
T = Trace of Precipitation, MM = Missing Value Source: Averaged Metar Reports

Daily Weather History Graph

Daily Weather History Graph

Search for Another Location

Airport or City:

Trip Planner

Search our weather history database for the weather conditions in past years. The results will help you decide how hot, cold, wet, or windy it might be!

Date:

Astronomy

Sep. 09, 2013 Rise Set
Actual Time 6:35 AM CEST 7:26 PM CEST
Civil Twilight 6:06 AM CEST 7:56 PM CEST
Nautical Twilight 5:30 AM CEST 8:31 PM CEST
Astronomical Twilight 4:53 AM CEST 9:08 PM CEST
Moon 10:51 AM CEST (9/9) 9:17 PM CEST (9/9)
Length of Visible Light 13h 50m
Length of Day
12h 50m
Waxing Crescent, 16% of the Moon is Illuminated
Sep 9
Waxing Crescent
Sep 12
First Quarter
Sep 19
Full
Sep 27
Last Quarter
Oct 5
New

Hourly Weather History & Observations

Time (CEST) Temp. Heat Index Dew Point Humidity Pressure Visibility Wind Dir Wind Speed Gust Speed Precip Events Conditions
12:00 AM 68.0 °F - 66.2 °F 94% 30.06 in - East 4.6 mph - N/A   Clear
12:30 AM 69.8 °F - 68.0 °F 94% 30.06 in - East 4.6 mph - N/A   Clear
1:00 AM 69.8 °F - 66.2 °F 88% 30.06 in - East 5.8 mph - N/A   Clear
1:30 AM 69.8 °F - 66.2 °F 88% 30.04 in - East 6.9 mph - N/A   Clear
2:00 AM 69 °F - 66 °F 87% 30.05 in 12 mi East 4.5 mph - -   Mostly Cloudy
2:00 AM 69.8 °F - 66.2 °F 88% 30.04 in - East 5.8 mph - N/A   Clear
2:30 AM 69.8 °F - 66.2 °F 88% 30.04 in - East 5.8 mph - N/A   Unknown
3:00 AM 69.8 °F - 66.2 °F 88% 30.01 in - East 5.8 mph - N/A   Clear
3:30 AM 69.8 °F - 66.2 °F 88% 30.01 in - East 4.6 mph - N/A   Mostly Cloudy
4:00 AM 69.8 °F - 66.2 °F 88% 30.01 in 6.2 mi ESE 4.6 mph - N/A   Scattered Clouds
4:30 AM 69.8 °F - 66.2 °F 88% 30.01 in 6.2 mi Variable 3.5 mph - N/A Rain Light Rain
5:00 AM 70 °F - 68 °F 90% 30.01 in 12 mi ESE 4.5 mph - - Rain Light Rain
5:00 AM 69.8 °F - 68.0 °F 94% 30.01 in 6.2 mi ESE 4.6 mph - N/A Rain Light Rain
5:30 AM 69.8 °F - 68.0 °F 94% 30.01 in 6.2 mi Variable 3.5 mph - N/A Rain Light Rain
6:00 AM 70 °F - -5 °F 4% 30.00 in 12 mi SSE 2.2 mph - - Rain Light Rain
6:00 AM 71.6 °F - 69.8 °F 94% 30.01 in 6.2 mi Variable 2.3 mph - N/A Rain Light Rain
6:30 AM 69.8 °F - 68.0 °F 94% 29.98 in 6.2 mi Variable 1.2 mph - N/A   Mostly Cloudy
7:00 AM 68.0 °F - 66.2 °F 94% 29.98 in 6.2 mi Calm Calm - N/A   Scattered Clouds
7:30 AM 68.0 °F - 66.2 °F 94% 29.98 in 6.2 mi Variable 2.3 mph - N/A   Partly Cloudy
8:00 AM 69 °F - 67 °F 92% 29.99 in 16 mi SSE 2.2 mph - -   Partly Cloudy
8:00 AM 69.8 °F - 68.0 °F 94% 29.98 in 6.2 mi Variable 1.2 mph - N/A   Partly Cloudy
8:30 AM 69.8 °F - 68.0 °F 94% 29.98 in 6.2 mi SE 4.6 mph - N/A   Partly Cloudy
9:00 AM 71.6 °F - 68.0 °F 88% 30.01 in 6.2 mi ESE 4.6 mph - N/A   Partly Cloudy
9:30 AM 77.0 °F - 68.0 °F 74% 29.98 in 6.2 mi Variable 5.8 mph - N/A   Partly Cloudy
10:00 AM 77.0 °F - 66.2 °F 69% 29.98 in 6.2 mi Variable 8.1 mph - N/A   Partly Cloudy
10:30 AM 77.0 °F - 66.2 °F 69% 29.98 in 6.2 mi Variable 8.1 mph - N/A   Partly Cloudy
11:00 AM 76 °F - 65 °F 62% 29.99 in 12 mi SW 8.9 mph - -   Scattered Clouds
11:00 AM 77.0 °F - 66.2 °F 69% 29.98 in 6.2 mi SW 9.2 mph - N/A   Partly Cloudy
11:30 AM 77.0 °F - 66.2 °F 69% 29.98 in 6.2 mi SW 11.5 mph - N/A   Partly Cloudy
12:00 PM 77.0 °F - 64.4 °F 65% 29.98 in 6.2 mi WSW 11.5 mph - N/A   Partly Cloudy
12:30 PM 80.6 °F 82.3 °F 64.4 °F 58% 29.98 in 6.2 mi WSW 11.5 mph - N/A   Partly Cloudy
1:00 PM 80.6 °F 82.7 °F 66.2 °F 61% 29.98 in 6.2 mi WSW 12.7 mph - N/A   Partly Cloudy
1:30 PM 80.6 °F 81.8 °F 62.6 °F 54% 29.98 in 6.2 mi WSW 11.5 mph - N/A   Partly Cloudy
2:00 PM 80.6 °F 81.8 °F 62.6 °F 54% 29.98 in 6.2 mi WSW 12.7 mph - N/A   Partly Cloudy
2:30 PM 80.6 °F 82.3 °F 64.4 °F 58% 29.98 in 6.2 mi SW 10.4 mph - N/A   Partly Cloudy
3:00 PM 82.4 °F 83.4 °F 62.6 °F 51% 29.98 in 6.2 mi WSW 10.4 mph - N/A   Partly Cloudy
3:30 PM 80.6 °F 81.8 °F 62.6 °F 54% 29.98 in 6.2 mi WSW 10.4 mph - N/A   Partly Cloudy
4:00 PM 80.6 °F 81.5 °F 60.8 °F 51% 29.98 in 6.2 mi Variable 6.9 mph - N/A   Partly Cloudy
4:30 PM 82.4 °F 82.5 °F 59.0 °F 45% 29.98 in 6.2 mi Variable 8.1 mph - N/A   Partly Cloudy
5:00 PM 81 °F - 59 °F 37% 29.99 in 16 mi SW 6.7 mph - -   Scattered Clouds
5:00 PM 80.6 °F 81.1 °F 59.0 °F 48% 29.98 in 6.2 mi SW 6.9 mph - N/A   Partly Cloudy
5:30 PM 80.6 °F 81.5 °F 60.8 °F 51% 29.98 in 6.2 mi Variable 5.8 mph - N/A   Partly Cloudy
6:00 PM 80.6 °F 81.1 °F 59.0 °F 48% 29.98 in - Variable 4.6 mph - N/A   Clear
6:30 PM 78.8 °F - 62.6 °F 57% 29.98 in - Variable 4.6 mph - N/A   Clear
7:00 PM 75.2 °F - 68.0 °F 78% 30.01 in 6.2 mi SSE 5.8 mph - N/A   Partly Cloudy
7:30 PM 73.4 °F - 68.0 °F 83% 30.01 in 6.2 mi SSE 4.6 mph - N/A   Partly Cloudy
8:00 PM 72 °F - 68 °F 83% 30.01 in 12 mi SE 4.5 mph - -   Scattered Clouds
8:00 PM 71.6 °F - 68.0 °F 88% 30.01 in 6.2 mi SE 4.6 mph - N/A   Partly Cloudy
8:30 PM 71.6 °F - 68.0 °F 88% 30.01 in 6.2 mi East 4.6 mph - N/A   Partly Cloudy
9:00 PM 69.8 °F - 68.0 °F 94% 30.01 in 6.2 mi East 5.8 mph - N/A   Partly Cloudy
9:30 PM 71.6 °F - 68.0 °F 88% 30.01 in - ESE 4.6 mph - N/A   Clear
10:00 PM 69.8 °F - 68.0 °F 94% 30.04 in - East 4.6 mph - N/A   Clear
10:30 PM 69.8 °F - 68.0 °F 94% 30.04 in 6.2 mi East 4.6 mph - N/A   Partly Cloudy
11:00 PM 71 °F - 70 °F 94% 30.04 in 9 mi East 6.7 mph - -   Partly Cloudy
11:00 PM 71.6 °F - 69.8 °F 94% 30.04 in 6.2 mi Variable 5.8 mph - N/A   Scattered Clouds
11:30 PM 69.8 °F - 68.0 °F 94% 30.04 in 6.2 mi East 10.4 mph - N/A   Scattered Clouds